Location: Newark
(35.2672°N, 80.7344°W)
Time: 20:57:21
(UTC+00:00)

Transit 2A Rocket - Pass Details

Date: 02 February 2020
Orbit: 591 x 912 km, 66.7° (Epoch: 23 February)

Event Time Altitude Azimuth Distance (km) Brightness Sun altitude
Rises 18:57:49 0° 314° (NW) 3,146 8.0 34.5°
Reaches altitude 10° 19:00:39 10° 298° (WNW) 2,281 7.5 34.3°
Maximum altitude 19:04:24 20° 252° (WSW) 1,750 7.7 33.9°
Drops below altitude 10° 19:08:23 10° 206° (SSW) 2,424 9.1 33.6°
Sets 19:11:31 0° 191° (S) 3,407 9.3 33.3°
